Weather History for KAHQ - January, 2014

Change the Weather History Date:

Sunday, January 5, 2014

  Actual Average Record
Temperature  
Mean Temperature 2 °F -  
Max Temperature 11 °F 31 °F 68 °F (2012)
Min Temperature -8 °F 8 °F -10 °F (1971)
Degree Days  
Heating Degree Days 64    
Moisture  
Dew Point -7 °F    
Average Humidity 60    
Maximum Humidity 70    
Minimum Humidity 41    
Precipitation  
Precipitation 0.00 in - - ()
Sea Level Pressure  
Sea Level Pressure 30.40 in    
Wind  
Wind Speed 20 mph (NNW)    
Max Wind Speed 31 mph    
Max Gust Speed 38 mph    
Visibility 10 miles    
Events      
Averages and records for this station are not official NWS values.
T = Trace of Precipitation, MM = Missing Value Source: NWS Daily Summary

Daily Weather History Graph

Daily Weather History Graph

Search for Another Location

Airport or City:

Trip Planner

Search our weather history database for the weather conditions in past years. The results will help you decide how hot, cold, wet, or windy it might be!

Date:

Astronomy

Jan. 05, 2014 Rise Set
Actual Time 7:52 AM CST 5:11 PM CST
Civil Twilight 7:21 AM CST 5:42 PM CST
Nautical Twilight 6:46 AM CST 6:17 PM CST
Astronomical Twilight 6:13 AM CST 6:50 PM CST
Moon 10:31 AM CST (1/5) 10:44 PM CST (1/5)
Length of Visible Light 10h 21m
Length of Day
9h 19m
Waxing Crescent, 25% of the Moon is Illuminated
Jan 5
Waxing Crescent
Jan 7
First Quarter
Jan 15
Full
Jan 23
Last Quarter
Jan 30
New

Hourly Weather History & Observations

Time (CST) Temp. Windchill Dew Point Humidity Pressure Visibility Wind Dir Wind Speed Gust Speed Precip Events Conditions
12:15 AM 8.8 °F - 0.9 °F 70% 30.24 in 10.0 mi North - - N/A   Clear
12:35 AM 8.6 °F - 0.5 °F 70% 30.25 in 10.0 mi North - - N/A   Scattered Clouds
12:55 AM 8.4 °F - 0.3 °F 70% 30.24 in 10.0 mi North - - N/A   Scattered Clouds
1:15 AM 8.1 °F - -0.0 °F 70% 30.25 in 10.0 mi North - - N/A   Mostly Cloudy
1:35 AM 7.7 °F - -0.4 °F 70% 30.26 in 10.0 mi North - - N/A   Scattered Clouds
1:55 AM 7.3 °F - -0.8 °F 69% 30.27 in 10.0 mi North - - N/A   Clear
2:15 AM 7.2 °F - -0.8 °F 70% 30.26 in 10.0 mi North - - N/A   Clear
2:35 AM 7.7 °F - -0.9 °F 68% 30.27 in 10.0 mi North - - N/A   Clear
2:55 AM 7.7 °F - -1.1 °F 67% 30.27 in 10.0 mi North - - N/A   Mostly Cloudy
3:15 AM 7.2 °F - -1.5 °F 68% 30.27 in 10.0 mi North - - N/A   Mostly Cloudy
3:35 AM 6.8 °F - -2.4 °F 66% 30.27 in 10.0 mi North - - N/A   Scattered Clouds
3:55 AM 6.4 °F - -2.9 °F 65% 30.27 in 10.0 mi North - - N/A   Clear
4:15 AM 6.4 °F - -3.6 °F 63% 30.28 in 10.0 mi North - - N/A   Mostly Cloudy
4:35 AM 6.4 °F - -3.6 °F 63% 30.28 in 10.0 mi North - - N/A   Overcast
4:55 AM 6.1 °F - -4.2 °F 63% 30.28 in 10.0 mi North - - N/A   Overcast
5:15 AM 5.9 °F - -4.4 °F 63% 30.29 in 10.0 mi North - - N/A   Overcast
5:35 AM 5.5 °F - -5.3 °F 61% 30.29 in 10.0 mi North - - N/A   Overcast
5:55 AM 5.5 °F - -4.7 °F 63% 30.30 in 10.0 mi North - - N/A   Overcast
6:15 AM 5.4 °F - -5.1 °F 62% 30.31 in 10.0 mi North - - N/A   Overcast
6:35 AM 5.0 °F -16.7 °F -5.1 °F 63% 30.32 in 10.0 mi North 23.0 mph - N/A   Overcast
6:55 AM 4.8 °F -17.7 °F -5.4 °F 63% 30.33 in 10.0 mi North 25.3 mph - N/A   Overcast
7:15 AM 3.7 °F -18.3 °F -7.2 °F 60% 30.34 in 10.0 mi North 23.0 mph 31.1 mph N/A   Overcast
7:35 AM 3.2 °F -18.6 °F -8.5 °F 58% 30.34 in 10.0 mi North 21.9 mph - N/A   Overcast
7:55 AM 2.3 °F -19.3 °F -8.3 °F 61% 30.35 in 10.0 mi North 20.7 mph 25.3 mph N/A   Mostly Cloudy
8:15 AM 1.8 °F -18.4 °F -8.7 °F 62% 30.36 in 10.0 mi North 17.3 mph - N/A   Scattered Clouds
8:35 AM 1.4 °F -18.8 °F -9.4 °F 61% 30.36 in 10.0 mi North 17.3 mph 26.5 mph N/A   Scattered Clouds
8:55 AM 2.3 °F - -9.0 °F 59% 30.37 in 10.0 mi North - - N/A   Overcast
9:15 AM 2.8 °F -19.5 °F -9.4 °F 57% 30.37 in 10.0 mi North 23.0 mph 29.9 mph N/A   Overcast
9:35 AM 3.7 °F -17.9 °F -8.1 °F 58% 30.38 in 10.0 mi North 21.9 mph - N/A   Overcast
9:55 AM 4.1 °F - -7.6 °F 58% 30.39 in 10.0 mi North - - N/A   Overcast
10:15 AM 3.7 °F - -7.6 °F 59% 30.40 in 10.0 mi North - - N/A   Overcast
10:35 AM 4.5 °F - -7.2 °F 58% 30.41 in 10.0 mi North - - N/A   Scattered Clouds
10:55 AM 5.7 °F - -5.6 °F 60% 30.41 in 10.0 mi North - - N/A   Clear
11:15 AM 6.8 °F - -4.9 °F 59% 30.41 in 10.0 mi North - - N/A   Clear
11:35 AM 7.9 °F - -4.2 °F 58% 30.40 in 10.0 mi North - - N/A   Clear
11:55 AM 8.1 °F - -4.4 °F 57% 30.40 in 10.0 mi North - - N/A   Scattered Clouds
12:15 PM 9.5 °F - -2.9 °F 57% 30.39 in 10.0 mi North - - N/A   Scattered Clouds
12:35 PM 10.6 °F - -2.6 °F 56% 30.39 in 10.0 mi North - - N/A   Clear
12:55 PM 10.8 °F - -2.6 °F 55% 30.39 in 10.0 mi North - - N/A   Scattered Clouds
1:15 PM 11.3 °F - -2.6 °F 54% 30.38 in 10.0 mi North - - N/A   Clear
1:35 PM 11.3 °F - -3.6 °F 51% 30.38 in 10.0 mi North - - N/A   Clear
1:55 PM 11.3 °F - -2.6 °F 54% 30.39 in 10.0 mi North - - N/A   Scattered Clouds
2:15 PM 11.5 °F - -2.0 °F 55% 30.39 in 10.0 mi North - - N/A   Overcast
2:35 PM 10.8 °F - -4.7 °F 50% 30.40 in 10.0 mi North - - N/A   Mostly Cloudy
2:55 PM 10.6 °F - -3.5 °F 53% 30.41 in 10.0 mi North - - N/A   Mostly Cloudy
3:15 PM 10.2 °F - -2.6 °F 56% 30.42 in 10.0 mi North - - N/A   Overcast
3:35 PM 9.3 °F - -6.0 °F 50% 30.42 in 10.0 mi North - - N/A   Mostly Cloudy
3:55 PM 9.9 °F - -8.9 °F 43% 30.43 in 10.0 mi North - - N/A   Scattered Clouds
4:15 PM 9.5 °F - -9.9 °F 41% 30.44 in 10.0 mi North - - N/A   Scattered Clouds
4:35 PM 8.6 °F - -9.4 °F 44% 30.44 in 10.0 mi North - - N/A   Scattered Clouds
4:55 PM 7.5 °F -10.3 °F -9.9 °F 45% 30.45 in 10.0 mi NW 16.1 mph - N/A   Scattered Clouds
5:15 PM 7.5 °F - -9.6 °F 46% 30.46 in 10.0 mi North - - N/A   Clear
5:35 PM 6.6 °F - -6.5 °F 55% 30.46 in 10.0 mi North - - N/A   Scattered Clouds
5:55 PM 5.9 °F -15.9 °F -5.4 °F 60% 30.48 in 7.0 mi NNW 24.2 mph - N/A   Mostly Cloudy
6:15 PM 2.7 °F -22.6 °F -7.1 °F 64% 30.50 in 10.0 mi NNW 31.1 mph 38.0 mph N/A   Mostly Cloudy
6:35 PM 0.7 °F -22.4 °F -9.9 °F 61% 30.51 in 10.0 mi NNW 23.0 mph 29.9 mph N/A   Scattered Clouds
6:55 PM -0.4 °F -22.3 °F -11.4 °F 60% 30.52 in 10.0 mi NNW 19.6 mph 31.1 mph N/A   Clear
7:15 PM -0.8 °F -21.6 °F -11.2 °F 61% 30.52 in 10.0 mi NNW 17.3 mph - N/A   Scattered Clouds
7:35 PM -1.3 °F - -10.7 °F 65% 30.53 in 10.0 mi North - - N/A   Mostly Cloudy
7:55 PM -2.2 °F -22.9 °F -12.1 °F 63% 30.53 in 10.0 mi NNW 16.1 mph - N/A   Scattered Clouds
8:15 PM -2.9 °F -26.1 °F -15.9 °F 54% 30.53 in 10.0 mi NNW 20.7 mph 28.8 mph N/A   Clear
8:35 PM -3.6 °F - -15.9 °F 56% 30.54 in 10.0 mi North - - N/A   Clear
8:55 PM -4.2 °F - -16.1 °F 57% 30.54 in 10.0 mi North - - N/A   Clear
9:15 PM -4.4 °F -27.5 °F -16.4 °F 56% 30.54 in 10.0 mi NW 19.6 mph - N/A   Clear
9:35 PM -4.9 °F - -16.6 °F 57% 30.54 in 10.0 mi North - - N/A   Clear
9:55 PM -5.8 °F - -17.0 °F 59% 30.54 in 10.0 mi North - - N/A   Clear
10:15 PM -5.8 °F - -17.1 °F 58% 30.54 in 10.0 mi North - - N/A   Clear
10:35 PM -6.7 °F -21.0 °F -17.9 °F 58% 30.54 in 10.0 mi NW 6.9 mph - N/A   Clear
10:55 PM -7.6 °F -20.6 °F -17.5 °F 62% 30.53 in 10.0 mi NW 5.8 mph - N/A   Clear
11:15 PM -8.7 °F -21.9 °F -17.9 °F 64% 30.53 in 10.0 mi NW 5.8 mph - N/A   Clear
11:35 PM -8.5 °F -19.8 °F -16.4 °F 68% 30.52 in 10.0 mi WNW 4.6 mph - N/A   Scattered Clouds
11:55 PM -8.3 °F -21.4 °F -16.2 °F 68% 30.51 in 10.0 mi WNW 5.8 mph - N/A   Scattered Clouds